Other Surface Observations
Issued by NWS Charleston, SC

Home | Current Version | Previous Version | Text Only | Print | Product List | Glossary On
Versions: 1 2 3 4 5 6 7 8 9 10 11 12 13 14 15 16 17 18 19 20 21 22 23 24 25 26 27 28 29 30 31 32 33 34 35 36 37 38 39 40 41 42 43 44 45 46 47 48 49 50
000
SXUS52 KCHS 221725
OSOCHS

MARINE OBSERVATIONS
NATIONAL WEATHER SERVICE CHARLESTON SC
100 PM EDT TUE JUL 22 2014

...DOWNTOWN CHARLESTON AND HARBOR...

CITY           SKY/WX    TMP DP  RH WIND       PRES   REMARKS
WATERFRONT PRK   N/A     79 N/A N/A E7          N/A
FORT JOHNSON   NOT AVBL

...LAKE MOULTRIE...

CITY           SKY/WX    TMP DP  RH WIND       PRES   REMARKS
PINOPOLIS        N/A     86  79  79 NE3       30.04S HX  99

...LAKE AND SUPPLEMENTAL COASTAL OBSERVATIONS...

STATION/POSITION TIME  TEMP    WIND        PRES    WAVE   SWELL
                       AIR SEA DIR/SP/G            HT/PER HT/PER/DIR
                 (UTC) (F)     (DEG/KT/KT) (MB)    (FT/S) (FT/S/D)
FORT PULASKI     1700   83     290/  4/  5 1019.3F
SAPELO ISLAND    1700   88     110/  2     1020.0S
UPR LAKE MARION  NOT AVBL
WINYAH BAY       1700   79      10/  2     1019.0S
LAKE MURRAY      1700   79      CALM  /  3 1019.3F
ACE BASIN NERRS  1700   87        CALM     1019.0F


...C-MAN AND BUOY OBSERVATIONS...

STATION/POSITION TIME  TEMP    WIND        PRES    WAVE   SWELL
                       AIR SEA DIR/SP/G            HT/PER HT/PER/DIR
                 (UTC) (F)     (DEG/KT/KT) (MB)    (FT/S) (FT/S/D)
BUOY 41004       1700   78 82   30/  4/  6 1019.4R   3/ 6   3/ 6
BUOY 41008       1700   80 85   30/  4/  4 1019.4F   2/ 8   2/120/ 8
FOLLY BEACH CMAN 1700   79      90/ 11/ 13 1019.9F
CAPERS NS BUOY   1600   76      50/  8/  8   N/A
FRIPP NS BUOY    NOT AVBL
5E ST. MARYS GA  1700      84                N/A     2/ 8
FRYING PAN BUOY  NOT AVBL
BUOY 41025       1700          VRB 14/ 16  1020.9F   4/ 7   2/130/ 7
CAPE LOOKOUT NC  1700   76     170/ 14/ 16 1020.5F
BUOY 41002       1640   82 83  200/ 12/ 14 1022.4R   4/ 7   3/120/ 7
BUOY 41010       1700   82 83  160/ 16/ 21 1019.1S   5/ 6   2/160/12
BUOY 41012       NOT AVBL
ST AUGUSTINE FL  1700   81      40/ 10/ 10 1019.5F


$$



USA.gov is the U.S. government's official web portal to all federal, state and local government web resources and services.